Terug naar catalogus

STARLINK-5537

ActiefCommunicatieVLEO
NORAD 55384·PAYLOAD·🇺🇸 United States

Gelanceerd Jan 26, 2023 vanaf Cape Canaveral Space Force Station

Loading…

Volgende Passages (komende 24 uur)

TLE

VersSource: CelesTrak SupGP

Epoch: Sep 15, 2026, 01:32 UTC

1 55384C 23013BF  26258.06437500  .00019181  00000+0  69486-3 0  2585
2 55384  43.0042 328.7344 0001983 278.2945 106.4129 15.27562682    17

Volg STARLINK-5537 in realtime met AllMySat

Download on the App Store